This is the latest recevied weather packets stored in our database for station/object KC8ZBC. If no packets are shown the sender has not sent any weather packets the latest 10 day(s).
| Time | Temp. | Humidity | Pressure | Rain* | Wind** | Luminosity | Snow |
|---|---|---|---|---|---|---|---|
| 1777679245 | 6.11° C | 66% | 990 hPa | 0 mm | - | 13 W/m² | - |
| 1777678942 | 6.11° C | 65% | 990 hPa | 0 mm | - | 15 W/m² | - |
| 1777678640 | 6.11° C | 66% | 990 hPa | 0 mm | - | 15 W/m² | - |
| 1777678337 | 6.11° C | 65% | 990 hPa | 0 mm | - | 16 W/m² | - |
| 1777678032 | 6.11° C | 64% | 989.9 hPa | 0 mm | - | 18 W/m² | - |
| 1777677730 | 6.11° C | 66% | 989.7 hPa | 0 mm | - | 22 W/m² | - |
| 1777677428 | 6.11° C | 65% | 989.8 hPa | 0 mm | - | 28 W/m² | - |
| 1777677126 | 6.11° C | 65% | 990 hPa | 0 mm | - | 34 W/m² | - |
| 1777676824 | 6.11° C | 65% | 990 hPa | 0 mm | - | 37 W/m² | - |
| 1777676522 | 6.11° C | 64% | 989.9 hPa | 0 mm | - | 33 W/m² | - |
| 1777676219 | 6.11° C | 64% | 990 hPa | 0 mm | - | 38 W/m² | - |
| 1777675915 | 6.11° C | 64% | 989.9 hPa | 0 mm | - | 27 W/m² | - |
| 1777675612 | 6.67° C | 63% | 989.9 hPa | 0 mm | - | 22 W/m² | - |
| 1777675310 | 6.67° C | 63% | 989.9 hPa | 0 mm | - | 28 W/m² | - |
| 1777675006 | 6.67° C | 61% | 989.9 hPa | 0 mm | - | 31 W/m² | - |
| 1777674703 | 6.67° C | 62% | 989.9 hPa | 0 mm | - | 39 W/m² | - |
| 1777674399 | 6.67° C | 60% | 989.8 hPa | 0 mm | - | 51 W/m² | - |
| 1777674097 | 6.67° C | 60% | 989.6 hPa | 0 mm | - | 42 W/m² | - |
| 1777673792 | 6.67° C | 62% | 989.8 hPa | 0 mm | - | 44 W/m² | - |
| 1777673490 | 6.67° C | 61% | 989.8 hPa | 0 mm | - | 60 W/m² | - |
| 1777673188 | 6.67° C | 61% | 989.8 hPa | 0 mm | - | 61 W/m² | - |
| 1777672884 | 6.67° C | 62% | 989.7 hPa | 0 mm | - | 57 W/m² | - |
| 1777672581 | 6.67° C | 61% | 989.8 hPa | 0 mm | - | 53 W/m² | - |
| 1777672276 | 7.22° C | 59% | 989.6 hPa | 0 mm | - | 79 W/m² | - |
| 1777671971 | 7.22° C | 60% | 989.5 hPa | 0 mm | - | 87 W/m² | - |
* Rain latest hour (hover to see other rain measurements)
** Current wind speed in m/s (hover to see current wind gust speed)